ARIANE 44LP DEB, 25542

Orbit data source: Space-Track

ARIANE 44LP DEB, 25542 is space debris in HEO originally from a launch on Sun, 11 Dec 1988 UTC launched from the French Guiana (FRGUI). Debris objects in space refer to the collection of defunct objects orbiting the Earth. Examples of debris include non-operational satellites, rocket bodies, and fragments generated from explosions, collisions, or faulty payload assembly.

Loading next visibility...
Identifier
25542, 1988-109J
Orbit
HEO
Country
Flag of FRFR
Related business
Manufacturer
Unknown
Mission
Spacecraft
Bus & Motor
Unknown
Mass
Unknown
Launch date (UTC)
1988-12-11 (37 years ago)
Launch vehicle
Unknown
Launch site
French Guiana (FRGUI)
Object type
Payload
Rocket body
Debris
Shape & HBR
Unknown
Radar Cross Section
8.100 m², Large (>1 m²)

Expand to show TLE details & history
Last TLE update: 23 hours ago

TLE from 23 hours ago
0 ARIANE 44LP DEB
1 25542U 88109J   25250.64632647  .00000433  00000-0  22493-2 0  9998
2 25542   7.2873 302.5278 7152158 286.2732  11.0108  2.33324611231869
Epoch: 2025-09-07T15:30Z
TLE epoch observation values (Epoch: 2025-09-07T15:30:42.607Z)
Latitude
0.00037°
Longitude
82.92997°
Altitude
3,429.732 km
Speed
8.042 km/s
True Right ascension
20h 10m 16s
True Declination
0° 00' 01"
Sunlit
Object was in daylight at epoch
Visualization orbit readout
Latitude
Unknown
Longitude
Unknown
Altitude
Unknown
Speed
Unknown
Apparent Right ascension
Unknown
Apparent Declination
Unknown
Sunlit
N/A
Visualization observer readout
Local Sidereal Time
06:59:45
Azimuth
Unknown
Elevation
Unknown
Doppler factor
Unknown
Orbital elements
Apogee altitude
34,816.626 km
Perigee altitude
461.596 km
Semi-major axis
24,017.248 km
Eccentricity
0.71522
Inclination
7.2873°
RAAN
302.5278°
Arg. of periapsis
286.2732°
True anomaly
73.44888°
Mean anomaly
11.0108°
Eccentric anomaly
33.81763°
Mean motion
0.58312 °/min
Orbital period
617.37 mins
BSTAR
0.0022493
Loading maneuver chart data...
Computing Atmospheric mass density...
Loading historical data...
Loading historical data...
Loading historical data...
Loading historical data...
Loading historical data...
Loading historical data...
Loading historical data...

Documentation

Showing up to 5 results
|